GLOBALSTAR M080 [+]

Last updated on Fri Dec 29 2023 00:02:57 GMT+0000 (Coordinated Universal Time)

1 38041U 11080B 23362.12112944 -.00000060 00000+0 24606-3 0 9993 2 38041 52.0053 244.9194 0000655 48.0506 116.3966 12.62267820555109
UTC large
Height (km)
Speed (km/s)
/
Latitude / Longitude
Inclination (degrees)
Orbital Period (minutes)
Azimuth
Elevation
Range (km)
Doppler Factor

Next 0 passes for location: London (51.5072 / 0.1276)

Sorry there are no passes over London.
GLOBALSTAR M080 [+]